• In Hungary
  • List of Countries
  • For 7 days
  • Water Temperature
  • Satellite Maps
  • Weather Map
  • News
  • Weather Widgets
  • user-avatar
    Login

    Hourly Weather Jalalabad

    Today, 22 July, Sunday

    Time Temperature Precipitation Wind Pressure Humidity
    00:00 +34°C° 0.3 mm 1 mps 702 mmHg 57%
    01:00 +34°C° 0.3 mm 1 mps 702 mmHg 59%
    02:00 +31°C° 0.3 mm 0 mps 702 mmHg 62%
    03:00 +31°C° 0.3 mm 0 mps 702 mmHg 64%
    04:00 +30°C° 0.3 mm 0 mps 702 mmHg 66%
    05:00 +29°C° 0 mm 0 mps 702 mmHg 68%
    06:00 +30°C° 0 mm 0 mps 702 mmHg 65%
    07:00 +33°C° 0 mm 1 mps 702 mmHg 61%
    08:00 +34°C° 0 mm 1 mps 702 mmHg 57%
    09:00 +35°C° 0 mm 1 mps 702 mmHg 51%
    10:00 +37°C° 0 mm 2 mps 702 mmHg 45%
    11:00 +38°C° 0 mm 2 mps 702 mmHg 39%
    12:00 +39°C° 0.1 mm 2 mps 701 mmHg 37%
    13:00 +40°C° 0.1 mm 2 mps 701 mmHg 34%
    14:00 +42°C° 0.1 mm 3 mps 701 mmHg 31%
    15:00 +42°C° 0.3 mm 3 mps 700 mmHg 31%
    16:00 +43°C° 0.3 mm 3 mps 700 mmHg 31%
    17:00 +43°C° 0.3 mm 3 mps 700 mmHg 31%
    18:00 +42°C° 0.4 mm 3 mps 700 mmHg 35%
    19:00 +39°C° 0.4 mm 3 mps 700 mmHg 39%
    20:00 +38°C° 0.4 mm 2 mps 700 mmHg 44%
    21:00 +38°C° 0.3 mm 2 mps 701 mmHg 47%
    22:00 +37°C° 0.3 mm 2 mps 701 mmHg 50%
    23:00 +35°C° 0.3 mm 1 mps 701 mmHg 53%

    Tomorrow, 23 July, Monday

    Time Temperature Precipitation Wind Pressure Humidity
    00:00 +35°C° 0.5 mm 1 mps 701 mmHg 55%
    01:00 +34°C° 0.5 mm 1 mps 701 mmHg 57%
    02:00 +32°C° 0.5 mm 0 mps 701 mmHg 59%
    03:00 +31°C° 0.7 mm 0 mps 701 mmHg 62%
    04:00 +31°C° 0.7 mm 0 mps 701 mmHg 64%
    05:00 +30°C° 0.7 mm 0 mps 700 mmHg 66%
    06:00 +33°C° 0.5 mm 1 mps 701 mmHg 64%
    07:00 +33°C° 0.5 mm 1 mps 701 mmHg 63%
    08:00 +34°C° 0.5 mm 1 mps 701 mmHg 61%
    09:00 +36°C° 0 mm 2 mps 701 mmHg 55%
    10:00 +37°C° 0 mm 2 mps 701 mmHg 49%
    11:00 +38°C° 0 mm 2 mps 701 mmHg 43%
    12:00 +39°C° 0.1 mm 3 mps 701 mmHg 41%
    13:00 +40°C° 0.1 mm 3 mps 700 mmHg 38%
    14:00 +42°C° 0.1 mm 3 mps 700 mmHg 36%
    15:00 +42°C° 0.5 mm 4 mps 700 mmHg 37%
    16:00 +42°C° 0.5 mm 4 mps 700 mmHg 38%
    17:00 +42°C° 0.5 mm 4 mps 699 mmHg 39%
    18:00 +41°C° 1.1 mm 4 mps 700 mmHg 44%
    19:00 +40°C° 1.1 mm 4 mps 700 mmHg 48%
    20:00 +38°C° 1.1 mm 3 mps 700 mmHg 53%
    21:00 +37°C° 1.4 mm 3 mps 700 mmHg 56%
    22:00 +36°C° 1.4 mm 3 mps 701 mmHg 60%
    23:00 +36°C° 1.4 mm 2 mps 701 mmHg 63%

    Day after tomorrow, 24 July, Tuesday

    Time Temperature Precipitation Wind Pressure Humidity
    00:00 +35°C° 1.2 mm 2 mps 701 mmHg 66%
    01:00 +34°C° 1.2 mm 2 mps 701 mmHg 68%
    02:00 +34°C° 1.2 mm 2 mps 701 mmHg 71%
    03:00 +33°C° 0.7 mm 1 mps 701 mmHg 72%
    04:00 +32°C° 0.7 mm 1 mps 701 mmHg 74%
    05:00 +32°C° 0.7 mm 1 mps 701 mmHg 76%
    06:00 +32°C° 0.5 mm 1 mps 701 mmHg 74%
    07:00 +33°C° 0.5 mm 1 mps 701 mmHg 71%
    08:00 +34°C° 0.5 mm 2 mps 702 mmHg 69%
    09:00 +35°C° 0.2 mm 2 mps 702 mmHg 62%
    10:00 +37°C° 0.2 mm 2 mps 702 mmHg 56%
    11:00 +38°C° 0.2 mm 2 mps 702 mmHg 49%
    12:00 +39°C° 0.1 mm 2 mps 701 mmHg 46%
    13:00 +40°C° 0.1 mm 3 mps 701 mmHg 42%
    14:00 +40°C° 0.1 mm 3 mps 701 mmHg 39%
    15:00 +42°C° 0.3 mm 3 mps 701 mmHg 39%
    16:00 +42°C° 0.3 mm 4 mps 700 mmHg 39%
    17:00 +42°C° 0.3 mm 4 mps 700 mmHg 39%
    18:00 +40°C° 0.7 mm 3 mps 700 mmHg 43%
    19:00 +39°C° 0.7 mm 3 mps 701 mmHg 47%
    20:00 +38°C° 0.7 mm 2 mps 701 mmHg 51%
    21:00 +37°C° 0.4 mm 2 mps 701 mmHg 54%
    22:00 +36°C° 0.4 mm 2 mps 702 mmHg 57%
    23:00 +35°C° 0.4 mm 1 mps 702 mmHg 60%

    25 July, Wednesday

    Time Temperature Precipitation Wind Pressure Humidity
    00:00 +34°C° 0.5 mm 1 mps 701 mmHg 62%
    01:00 +34°C° 0.5 mm 1 mps 701 mmHg 64%
    02:00 +33°C° 0.5 mm 1 mps 701 mmHg 66%
    03:00 +32°C° 0.1 mm 1 mps 701 mmHg 68%
    04:00 +32°C° 0.1 mm 1 mps 701 mmHg 70%
    05:00 +31°C° 0.1 mm 1 mps 700 mmHg 71%
    06:00 +32°C° 0 mm 1 mps 700 mmHg 66%
    07:00 +33°C° 0 mm 1 mps 701 mmHg 61%
    08:00 +34°C° 0 mm 1 mps 701 mmHg 55%
    09:00 +35°C° 0 mm 1 mps 701 mmHg 48%
    10:00 +37°C° 0 mm 1 mps 701 mmHg 41%
    11:00 +39°C° 0 mm 1 mps 701 mmHg 34%
    12:00 +40°C° 0 mm 2 mps 700 mmHg 31%
    13:00 +41°C° 0 mm 2 mps 700 mmHg 28%
    14:00 +43°C° 0 mm 3 mps 699 mmHg 26%
    15:00 +43°C° 0 mm 3 mps 699 mmHg 26%
    16:00 +43°C° 0 mm 3 mps 699 mmHg 26%
    17:00 +44°C° 0 mm 3 mps 699 mmHg 26%
    18:00 +42°C° 0.1 mm 3 mps 699 mmHg 30%
    19:00 +40°C° 0.1 mm 2 mps 700 mmHg 34%
    20:00 +38°C° 0.1 mm 2 mps 700 mmHg 39%
    21:00 +38°C° 0.2 mm 2 mps 700 mmHg 43%
    22:00 +37°C° 0.2 mm 2 mps 701 mmHg 47%
    23:00 +35°C° 0.2 mm 1 mps 701 mmHg 51%

    26 July, Thursday

    Time Temperature Precipitation Wind Pressure Humidity
    00:00 +34°C° 0.3 mm 1 mps 701 mmHg 54%
    01:00 +33°C° 0.3 mm 1 mps 700 mmHg 57%
    02:00 +33°C° 0.3 mm 1 mps 700 mmHg 60%
    03:00 +32°C° 0.2 mm 1 mps 700 mmHg 61%
    04:00 +32°C° 0.2 mm 1 mps 700 mmHg 62%
    05:00 +31°C° 0.2 mm 1 mps 700 mmHg 62%
    06:00 +32°C° 0 mm 1 mps 700 mmHg 57%
    07:00 +33°C° 0 mm 1 mps 700 mmHg 52%
    08:00 +34°C° 0 mm 1 mps 700 mmHg 47%
    09:00 +35°C° 0 mm 1 mps 701 mmHg 40%
    10:00 +37°C° 0 mm 1 mps 701 mmHg 32%
    11:00 +39°C° 0 mm 2 mps 701 mmHg 25%
    12:00 +40°C° 0 mm 2 mps 700 mmHg 23%
    13:00 +41°C° 0 mm 2 mps 700 mmHg 22%
    14:00 +43°C° 0 mm 3 mps 700 mmHg 20%
    15:00 +43°C° 0 mm 3 mps 700 mmHg 21%
    16:00 +43°C° 0 mm 3 mps 699 mmHg 23%
    17:00 +43°C° 0 mm 4 mps 699 mmHg 24%
    18:00 +40°C° 0.1 mm 3 mps 700 mmHg 30%
    19:00 +39°C° 0.1 mm 3 mps 700 mmHg 36%
    20:00 +37°C° 0.1 mm 3 mps 700 mmHg 42%
    21:00 +37°C° 0.3 mm 2 mps 701 mmHg 47%
    22:00 +36°C° 0.3 mm 2 mps 701 mmHg 53%
    23:00 +35°C° 0.3 mm 2 mps 701 mmHg 58%

    27 July, Friday

    Time Temperature Precipitation Wind Pressure Humidity
    00:00 +34°C° 0.2 mm 2 mps 701 mmHg 61%
    01:00 +33°C° 0.2 mm 1 mps 701 mmHg 65%
    02:00 +32°C° 0.2 mm 1 mps 700 mmHg 69%
    03:00 +31°C° 0 mm 1 mps 700 mmHg 71%
    04:00 +31°C° 0 mm 1 mps 700 mmHg 73%
    05:00 +30°C° 0 mm 1 mps 700 mmHg 75%
    06:00 +31°C° 0 mm 1 mps 700 mmHg 71%
    07:00 +32°C° 0 mm 1 mps 701 mmHg 66%
    08:00 +32°C° 0 mm 1 mps 701 mmHg 62%
    09:00 +34°C° 0 mm 1 mps 701 mmHg 54%
    10:00 +35°C° 0 mm 1 mps 701 mmHg 46%
    11:00 +38°C° 0 mm 2 mps 700 mmHg 37%
    12:00 +39°C° 0 mm 2 mps 700 mmHg 34%
    13:00 +40°C° 0 mm 3 mps 700 mmHg 31%
    14:00 +42°C° 0 mm 3 mps 700 mmHg 28%
    15:00 +42°C° 0.1 mm 3 mps 699 mmHg 29%
    16:00 +42°C° 0.1 mm 3 mps 699 mmHg 31%
    17:00 +42°C° 0.1 mm 4 mps 699 mmHg 32%
    18:00 +39°C° 0.1 mm 3 mps 700 mmHg 37%
    19:00 +38°C° 0.1 mm 3 mps 700 mmHg 43%
    20:00 +37°C° 0.1 mm 2 mps 700 mmHg 48%
    21:00 +36°C° 0.1 mm 2 mps 700 mmHg 52%
    22:00 +36°C° 0.1 mm 2 mps 701 mmHg 56%
    23:00 +34°C° 0.1 mm 1 mps 701 mmHg 59%
    Show more